Wind_Speed
6 2 2 3 3 1 1 2 1 3 4 6 5 5 3 2 4 5 9 7 6 5 5 5 6 7 7 10 11 9 10 11 12 12 12 11 11 12 16 14 16 16 14
6 2 3 3 2 2 0 1 3 4 4 3 3 3 4 6 7 4 8 11 9 8 7 7 7 7 9 12 12 10 10 10 12 13 11 12 10 11 13 14 15 16 14
7 3 3 2 3 3 3 3 3 4 4 2 2 1 2 3 4 3 6 7 9 9 8 8 9 9 11 13 12 11 11 11 12 12 11 14 11 10 10 12 14 14 13
9 5 3 3 3 5 5 5 4 4 4 2 1 0 2 3 4 4 4 11 9 9 7 9 10 11 13 14 13 11 11 12 12 12 13 13 13 11 10 11 13 12 12
12 10 6 3 2 5 7 6 5 5 5 4 3 2 1 0 3 5 6 11 10 9 8 10 11 13 14 14 13 11 11 12 11 10 12 12 12 10 10 10 12 13 12
13 11 9 5 1 2 3 4 5 5 5 4 4 4 4 3 3 4 7 9 8 7 7 9 10 13 14 14 14 12 11 10 12 11 11 12 10 9 9 9 10 11 11
13 10 10 7 1 2 4 4 5 5 5 4 3 3 3 4 4 4 4 7 7 8 7 10 11 12 13 13 12 11 12 11 11 11 10 11 9 8 9 9 9 9 10
20 12 7 6 4 3 7 7 7 6 6 4 3 3 3 4 4 5 5 5 4 6 10 10 11 11 12 12 12 11 11 10 10 9 9 9 10 6 6 7 8 7 7
28 20 9 5 7 8 8 9 9 8 7 7 5 3 4 6 7 7 7 6 7 7 13 13 12 12 12 12 11 11 10 9 8 8 6 5 7 6 5 6 7 6 6
23 23 13 10 11 12 10 12 11 11 10 9 7 6 7 7 8 8 8 8 6 3 12 17 14 13 13 12 11 11 9 8 7 6 5 3 2 2 2 2 4 4 3
41 31 18 15 12 11 14 12 13 10 10 9 9 9 9 9 8 6 6 7 8 5 13 19 17 16 15 14 14 13 12 10 9 7 5 6 5 4 3 3 1 0 1
32 39 34 17 14 11 10 13 15 15 12 12 13 13 11 11 11 9 9 8 10 11 9 18 17 17 17 17 17 17 16 16 14 13 11 11 10 8 8 7 5 4 3
35 32 36 20 19 12 13 17 15 14 15 13 12 14 13 12 13 12 10 10 10 11 12 13 16 16 20 20 21 19 18 18 18 17 16 15 14 12 11 12 11 9 8
36 33 31 26 13 21 21 18 5 6 9 11 11 12 14 14 14 13 12 12 12 12 13 14 15 16 17 19 23 20 20 21 22 21 21 20 18 18 16 18 16 13 13
36 31 31 31 25 20 27 20 6 1 9 13 10 6 13 13 13 14 13 11 14 12 14 14 16 16 17 16 18 18 17 17 19 21 22 22 22 18 17 20 16 16 17
37 32 30 32 21 15 9 5 7 7 6 6 7 6 7 13 14 17 14 16 20 19 17 17 18 18 18 18 17 19 19 19 16 16 18 18 22 22 22 19 18 19 20
36 32 25 27 25 24 19 15 8 1 9 12 13 13 11 13 16 17 13 14 13 13 16 17 17 20 18 19 16 17 15 17 18 16 17 17 19 21 21 20 20 21 21
32 32 25 21 20 13 10 11 10 6 10 14 13 15 12 14 19 19 17 16 15 15 16 16 19 22 18 16 17 17 15 18 17 18 19 20 21 22 22 22 21 20 21
28 31 28 21 18 18 12 12 11 9 8 12 18 15 12 13 22 21 17 14 15 15 14 15 16 18 16 19 21 19 21 21 19 19 20 23 23 23 23 22 22 22 23
28 28 29 25 18 16 15 12 12 12 6 12 17 13 14 16 16 16 15 15 14 14 14 15 13 17 17 18 18 19 19 19 20 20 20 22 21 22 22 22 22 23 24
25 27 28 27 24 20 18 17 13 10 9 7 13 13 16 13 16 16 15 16 14 14 15 16 14 24 18 19 21 19 19 21 19 19 21 21 21 20 21 22 23 23 24
26 27 28 27 29 22 18 17 14 11 12 7 7 15 18 15 18 18 17 17 16 17 18 17 14 15 16 18 20 20 21 18 19 18 19 20 20 20 21 21 19 21 21
28 29 27 26 28 25 21 14 14 9 9 11 6 15 18 17 18 18 19 19 17 17 19 19 17 17 17 19 19 19 19 18 17 19 20 21 20 20 20 20 20 21 22
25 28 30 26 27 25 23 15 10 12 9 7 9 10 20 21 19 21 20 18 16 17 18 16 17 17 17 16 15 16 17 18 18 19 19 20 19 19 20 20 18 21 25
23 27 29 29 25 24 25 15 10 7 12 12 8 9 16 21 22 22 22 22 19 17 16 16 17 17 14 14 15 16 17 18 16 15 17 18 17 16 17 17 18 17 12
23 26 28 31 29 30 24 13 14 14 13 17 10 12 12 20 23 22 19 20 22 22 20 16 15 15 13 14 14 15 15 13 11 10 13 16 16 15 14 16 17 12 15
Wind_Direction
27 62 122 130 157 173 71 92 116 59 41 27 9 8 7 26 354 184 204 232 213 202 197 185 150 138 137 128 126 124 117 111 112 109 110 100 108 102 98 98 97 91 89
42 32 105 121 142 140 154 191 137 103 80 48 20 14 354 13 13 268 216 226 215 204 179 177 155 152 136 124 125 124 116 111 113 108 106 106 111 110 104 100 102 96 91
32 3 87 113 126 150 172 163 145 112 98 92 86 41 343 17 340 282 194 184 180 179 175 161 157 155 138 130 129 128 128 122 118 116 111 114 114 108 107 103 107 101 96
47 32 67 93 117 144 152 154 153 136 139 148 140 307 337 13 16 120 140 173 131 154 162 154 162 153 147 137 134 137 127 123 129 135 125 116 110 108 93 91 94 96 98
43 51 45 62 127 152 157 161 154 152 152 160 168 178 205 44 72 137 98 126 141 137 151 163 162 158 152 144 142 141 137 132 126 127 122 111 108 108 100 90 86 87 88
50 41 50 55 92 158 172 158 154 159 162 157 166 174 162 153 128 147 135 153 157 153 158 166 168 162 158 150 148 146 139 132 125 122 124 115 111 107 104 95 88 82 81
9 33 39 43 52 195 205 194 178 178 174 169 169 195 182 169 154 154 202 231 226 203 188 174 173 169 164 157 155 146 141 137 133 133 126 121 112 110 108 101 93 83 81
353 354 14 25 336 249 218 207 200 189 182 169 177 167 177 179 180 165 178 207 207 232 214 193 176 176 173 166 160 163 154 148 139 134 132 132 127 124 116 110 99 90 83
334 322 326 327 307 297 254 227 209 202 196 180 177 190 172 185 206 202 198 198 189 234 223 199 188 183 183 182 179 183 171 166 158 151 144 141 131 133 126 110 104 96 89
349 323 304 289 305 296 263 230 211 202 202 199 180 186 201 202 204 210 222 224 221 261 191 200 195 191 192 190 198 205 201 201 192 194 174 181 168 159 194 150 116 104 91
17 6 296 282 263 280 279 213 206 199 193 207 203 199 223 212 211 201 216 227 228 229 190 201 202 202 201 202 206 216 228 232 242 238 228 233 239 238 254 274 289 131 37
18 12 8 256 250 245 257 222 180 182 185 183 210 210 213 222 216 207 207 206 217 221 207 216 220 217 214 215 216 219 226 242 242 244 240 245 252 253 259 271 269 260 274
16 22 13 13 233 250 237 222 188 170 177 176 189 213 220 222 222 211 214 216 215 224 222 219 234 238 228 229 227 232 231 237 248 250 256 258 260 258 257 261 259 258 258
13 16 13 7 322 237 234 220 207 164 181 192 193 196 218 225 231 219 210 221 218 219 220 227 232 240 236 241 235 241 249 246 246 255 257 255 257 261 254 267 264 256 270
13 13 14 6 347 234 233 245 192 104 194 205 222 221 214 219 228 233 220 209 210 226 225 226 227 229 238 235 238 240 246 242 248 252 254 255 253 256 270 268 269 276 274
11 13 19 19 21 138 206 168 154 175 206 224 242 244 238 232 236 232 232 230 225 233 222 222 231 227 231 240 241 243 243 242 248 255 255 253 257 263 262 268 272 275 275
10 12 23 28 30 26 36 16 14 340 220 217 227 232 233 225 222 225 202 197 201 216 227 223 227 236 237 242 242 246 241 244 247 251 252 254 252 255 258 265 270 277 279
12 13 14 27 33 36 21 354 343 316 241 235 240 240 240 237 224 221 215 216 220 224 229 231 227 226 239 239 249 246 250 253 251 256 260 263 263 262 264 268 274 277 273
5 11 12 13 28 24 20 359 329 309 276 251 255 257 237 228 222 206 204 217 224 226 221 220 229 231 238 245 247 252 254 253 257 258 261 266 270 273 272 273 274 272 272
0 7 9 14 18 13 11 21 356 339 293 244 244 255 218 212 206 204 205 211 210 213 218 229 252 230 231 241 246 240 249 259 261 261 265 268 268 272 276 274 272 273 272
0 8 3 7 10 8 2 1 5 349 340 272 221 233 217 218 204 207 216 220 212 217 222 236 246 214 233 224 238 248 254 257 268 272 275 276 269 270 266 264 265 266 268
354 3 0 1 0 359 359 351 348 357 345 297 231 219 213 211 208 208 217 225 225 219 222 229 233 222 236 241 245 253 259 263 262 267 267 268 270 271 267 267 270 267 271
354 360 358 357 356 360 358 357 338 341 351 336 279 205 209 211 212 217 223 222 230 230 224 228 227 230 243 247 250 253 256 262 268 269 270 273 275 275 275 277 271 270 273
352 352 355 354 354 360 359 355 336 337 339 343 333 245 201 202 206 215 221 225 226 238 225 220 228 239 241 246 249 253 260 265 268 272 275 276 277 278 273 266 277 267 271
346 349 351 353 352 349 345 349 342 322 333 315 330 313 243 221 220 224 221 220 223 219 197 225 240 243 241 244 252 258 265 270 278 284 283 283 277 268 267 264 265 268 277
340 344 348 352 351 345 349 355 349 329 304 308 304 307 283 235 229 222 231 224 217 217 224 235 239 237 242 246 251 258 264 272 277 290 289 278 266 264 264 269 261 255 251
Height
5887 5886 5885 5882 5881 5881 5881 5882 5882 5881 5882 5883 5883 5885 5886 5886 5886 5886 5886 5888 5890 5891 5892 5892 5893 5895 5897 5897 5898 5900 5900 5900 5900 5902 5902 5903 5904 5904 5902 5903 5903 5903 5904
5887 5887 5885 5883 5882 5882 5881 5880 5881 5881 5882 5883 5884 5884 5885 5886 5885 5885 5887 5888 5889 5891 5892 5893 5894 5896 5898 5898 5900 5901 5901 5901 5902 5903 5903 5904 5906 5906 5905 5905 5905 5905 5905
5889 5888 5885 5884 5884 5883 5881 5881 5881 5881 5881 5882 5883 5885 5886 5887 5887 5886 5886 5888 5890 5891 5892 5893 5895 5898 5899 5899 5901 5902 5902 5903 5903 5905 5906 5905 5907 5908 5907 5906 5906 5906 5907
5891 5890 5887 5885 5885 5883 5882 5882 5881 5881 5882 5882 5883 5884 5886 5887 5887 5887 5887 5887 5890 5892 5893 5894 5896 5898 5899 5900 5902 5904 5905 5905 5906 5907 5907 5907 5907 5909 5909 5908 5908 5908 5908
5892 5889 5888 5887 5885 5884 5882 5881 5881 5881 5882 5882 5883 5884 5885 5887 5888 5889 5889 5889 5891 5893 5895 5897 5897 5899 5899 5900 5902 5904 5906 5907 5908 5908 5908 5908 5909 5910 5910 5910 5909 5910 5910
5890 5889 5887 5887 5886 5885 5883 5882 5882 5881 5882 5883 5883 5884 5885 5886 5887 5889 5890 5892 5893 5894 5895 5897 5900 5900 5901 5901 5902 5904 5906 5907 5908 5909 5909 5908 5910 5911 5911 5911 5911 5911 5911
5892 5888 5886 5885 5885 5884 5882 5882 5882 5881 5882 5883 5884 5885 5886 5887 5888 5891 5891 5893 5894 5895 5896 5897 5900 5902 5903 5904 5905 5905 5906 5907 5908 5909 5909 5910 5911 5912 5912 5912 5912 5913 5913
5895 5890 5885 5884 5883 5882 5881 5880 5881 5881 5881 5883 5883 5885 5887 5888 5888 5889 5891 5892 5894 5895 5897 5899 5900 5903 5905 5906 5907 5907 5907 5908 5909 5909 5910 5911 5911 5913 5914 5914 5914 5913 5914
5892 5890 5885 5881 5880 5881 5881 5880 5879 5880 5881 5882 5884 5884 5884 5886 5888 5889 5891 5892 5893 5894 5897 5899 5900 5902 5905 5906 5908 5908 5909 5909 5910 5911 5912 5913 5913 5914 5915 5915 5915 5915 5915
5880 5879 5879 5879 5878 5877 5878 5878 5877 5877 5878 5881 5882 5885 5885 5884 5886 5888 5890 5892 5892 5892 5893 5897 5900 5902 5903 5905 5908 5909 5911 5911 5911 5912 5912 5913 5914 5915 5916 5916 5915 5916 5916
5877 5876 5873 5874 5874 5874 5875 5874 5875 5876 5876 5878 5880 5882 5884 5886 5886 5888 5889 5891 5892 5893 5893 5896 5899 5901 5902 5904 5906 5908 5911 5912 5913 5912 5912 5913 5914 5915 5917 5917 5917 5916 5916
5877 5872 5867 5865 5868 5868 5871 5873 5871 5871 5874 5874 5877 5878 5881 5884 5885 5886 5888 5890 5892 5893 5894 5895 5898 5899 5901 5902 5903 5905 5908 5910 5912 5912 5912 5913 5914 5914 5916 5916 5916 5915 5915
5877 5872 5870 5863 5866 5868 5868 5869 5870 5868 5870 5872 5873 5876 5879 5882 5884 5885 5887 5888 5890 5892 5893 5895 5897 5898 5900 5901 5901 5903 5906 5908 5909 5910 5911 5911 5912 5913 5914 5914 5914 5914 5914
5877 5872 5867 5865 5863 5863 5863 5864 5865 5868 5870 5871 5871 5873 5876 5880 5882 5884 5885 5887 5888 5890 5891 5894 5895 5896 5898 5899 5901 5902 5904 5906 5906 5906 5907 5909 5909 5910 5910 5911 5911 5912 5912
5881 5875 5869 5860 5853 5850 5859 5861 5866 5866 5869 5871 5871 5871 5875 5879 5880 5881 5884 5885 5886 5888 5890 5891 5893 5895 5896 5896 5899 5900 5901 5903 5903 5904 5904 5905 5906 5906 5907 5908 5909 5909 5909
5884 5877 5871 5863 5855 5852 5861 5860 5866 5866 5869 5870 5871 5872 5874 5877 5879 5879 5882 5882 5883 5886 5888 5889 5891 5893 5894 5894 5896 5898 5899 5901 5901 5901 5901 5901 5902 5903 5904 5905 5905 5906 5906
5887 5881 5876 5870 5863 5861 5863 5866 5866 5866 5869 5871 5870 5871 5873 5875 5876 5878 5879 5880 5880 5883 5885 5887 5890 5892 5893 5894 5895 5895 5896 5898 5899 5899 5898 5899 5899 5900 5901 5902 5903 5904 5903
5888 5884 5879 5876 5874 5870 5868 5867 5866 5868 5869 5869 5869 5870 5870 5871 5873 5875 5876 5877 5878 5880 5883 5884 5887 5889 5890 5892 5893 5894 5895 5895 5896 5895 5895 5895 5896 5896 5897 5899 5900 5900 5899
5890 5886 5882 5877 5875 5874 5872 5869 5868 5867 5866 5866 5866 5866 5866 5868 5870 5872 5874 5875 5876 5878 5880 5882 5883 5885 5887 5889 5890 5891 5892 5892 5893 5893 5891 5891 5892 5893 5895 5895 5896 5896 5896
5889 5885 5884 5879 5876 5875 5874 5869 5867 5865 5864 5864 5863 5864 5865 5867 5868 5872 5872 5872 5874 5876 5878 5878 5879 5881 5884 5886 5887 5888 5888 5887 5887 5888 5888 5889 5890 5890 5891 5892 5892 5891 5891
5894 5885 5882 5879 5874 5873 5870 5868 5866 5864 5862 5862 5862 5863 5864 5867 5867 5870 5870 5870 5872 5875 5876 5876 5877 5879 5881 5883 5885 5885 5886 5885 5886 5886 5885 5885 5886 5887 5887 5886 5886 5885 5884
5894 5889 5885 5879 5874 5870 5867 5865 5865 5862 5859 5860 5860 5860 5861 5863 5865 5867 5868 5871 5871 5873 5875 5875 5875 5876 5878 5881 5881 5882 5882 5882 5883 5883 5883 5883 5882 5882 5882 5881 5881 5880 5880
5892 5887 5885 5882 5877 5873 5866 5862 5862 5863 5859 5858 5858 5857 5860 5860 5862 5865 5867 5868 5870 5872 5872 5873 5873 5874 5877 5878 5879 5879 5878 5879 5880 5880 5879 5878 5878 5878 5877 5876 5876 5876 5875
5890 5890 5886 5882 5877 5871 5866 5862 5860 5858 5860 5858 5858 5859 5858 5858 5859 5861 5864 5866 5868 5870 5870 5871 5872 5874 5875 5875 5876 5876 5876 5876 5877 5877 5875 5874 5873 5873 5872 5872 5872 5871 5870
5890 5887 5884 5882 5878 5872 5866 5862 5858 5857 5857 5856 5856 5856 5856 5856 5856 5857 5858 5861 5864 5867 5867 5868 5868 5869 5870 5871 5873 5874 5874 5874 5874 5872 5870 5868 5868 5868 5868 5868 5868 5866 5866
5892 5888 5883 5880 5875 5870 5862 5857 5855 5855 5853 5850 5851 5852 5852 5852 5854 5854 5856 5857 5859 5863 5864 5864 5865 5866 5867 5870 5871 5871 5872 5871 5871 5869 5867 5865 5864 5865 5864 5863 5863 5861 5863